Weather History for KLIC - January, 2014

Change the Weather History Date:

Monday, January 20, 2014

  Actual Average Record
Temperature  
Mean Temperature 29 °F -  
Max Temperature 43 °F - 69 °F (2005)
Min Temperature 14 °F - -4 °F (2007)
Degree Days  
Heating Degree Days 36    
Month to date heating degree days 802  
Cooling Degree Days 0    
Month to date cooling degree days 0  
Moisture  
Dew Point 17 °F    
Average Humidity 64    
Maximum Humidity 92    
Minimum Humidity 36    
Precipitation  
Precipitation 0.00 in - 0.13 in (2007)
Month to date precipitation 0.30  
Year to date precipitation 0.30  
Sea Level Pressure  
Sea Level Pressure 30.28 in    
Wind  
Wind Speed 9 mph (NNW)    
Max Wind Speed 25 mph    
Max Gust Speed 31 mph    
Visibility 10 miles    
Events      
T = Trace of Precipitation, MM = Missing Value Source: NWS Daily Summary

Daily Weather History Graph

Daily Weather History Graph

Search for Another Location

Airport or City:

Trip Planner

Search our weather history database for the weather conditions in past years. The results will help you decide how hot, cold, wet, or windy it might be!

Date:

Astronomy

Jan. 20, 2014 Rise Set
Actual Time 7:10 AM MST 5:01 PM MST
Civil Twilight 6:41 AM MST 5:30 PM MST
Nautical Twilight 6:08 AM MST 6:03 PM MST
Astronomical Twilight 5:36 AM MST 6:35 PM MST
Moon 9:36 PM MST (1/20) 9:13 AM MST (1/20)
Length of Visible Light 10h 49m
Length of Day
9h 51m
Waning Gibbous, 82% of the Moon is Illuminated
Jan 20
Waning Gibbous
Jan 23
Last Quarter
Jan 30
New
Feb 6
First Quarter
Feb 14
Full

Hourly Weather History & Observations

Time (MST) Temp. Windchill Dew Point Humidity Pressure Visibility Wind Dir Wind Speed Gust Speed Precip Events Conditions
12:55 AM 19.9 °F 13.4 °F 16.0 °F 85% 29.96 in 10.0 mi North 4.6 mph - N/A   Clear
1:55 AM 21.9 °F 14.5 °F 15.1 °F 75% 29.96 in 10.0 mi North 5.8 mph - N/A   Clear
2:55 AM 23.0 °F 15.8 °F 15.1 °F 72% 29.97 in 10.0 mi NW 5.8 mph - N/A   Clear
3:55 AM 28.0 °F 20.8 °F 16.0 °F 61% 29.99 in 10.0 mi WNW 6.9 mph - N/A   Clear
4:55 AM 24.1 °F 17.0 °F 15.1 °F 69% 30.08 in 10.0 mi NNW 5.8 mph - N/A   Clear
5:55 AM 28.0 °F 18.1 °F 16.0 °F 61% 30.17 in 10.0 mi NNW 11.5 mph - N/A   Clear
6:55 AM 32.0 °F 19.8 °F 15.1 °F 50% 30.22 in 10.0 mi North 20.7 mph - N/A   Clear
7:55 AM 30.9 °F 19.4 °F 17.1 °F 57% 30.24 in 10.0 mi North 17.3 mph 26.5 mph N/A   Clear
8:55 AM 33.1 °F 22.6 °F 18.0 °F 54% 30.30 in 10.0 mi North 16.1 mph - N/A   Clear
9:55 AM 36.0 °F 25.0 °F 19.0 °F 50% 30.35 in 10.0 mi NNW 20.7 mph - N/A   Clear
10:55 AM 37.9 °F 28.5 °F 19.0 °F 47% 30.34 in 10.0 mi NNW 17.3 mph - N/A   Clear
11:55 AM 39.9 °F 30.8 °F 19.0 °F 43% 30.33 in 10.0 mi North 18.4 mph - N/A   Clear
12:55 PM 39.9 °F 32.1 °F 19.0 °F 43% 30.34 in 10.0 mi NNW 13.8 mph - N/A   Clear
1:55 PM 41.0 °F 33.5 °F 19.0 °F 41% 30.31 in 10.0 mi NW 13.8 mph - N/A   Clear
2:55 PM 43.0 °F 36.0 °F 17.1 °F 35% 30.32 in 10.0 mi NNW 13.8 mph - N/A   Clear
3:55 PM 42.1 °F 34.5 °F 19.0 °F 40% 30.32 in 10.0 mi NW 15.0 mph - N/A   Clear
4:55 PM 33.1 °F 27.7 °F 18.0 °F 54% 30.39 in 10.0 mi North 5.8 mph - N/A   Clear
5:55 PM 26.1 °F 19.4 °F 19.0 °F 75% 30.42 in 10.0 mi West 5.8 mph - N/A   Clear
6:55 PM 24.1 °F 15.2 °F 18.0 °F 77% 30.43 in 10.0 mi NNW 8.1 mph - N/A   Clear
7:55 PM 19.9 °F - 16.0 °F 85% 30.46 in 10.0 mi Calm Calm - N/A   Clear
8:55 PM 19.9 °F - 16.0 °F 85% 30.47 in 10.0 mi Calm Calm - N/A   Clear
9:55 PM 18.0 °F 12.7 °F 16.0 °F 92% 30.47 in 10.0 mi NNW 3.5 mph - N/A   Clear
10:55 PM 16.0 °F 8.8 °F 12.9 °F 88% 30.47 in 10.0 mi North 4.6 mph - N/A   Clear
11:55 PM 17.1 °F - 12.9 °F 84% 30.44 in 10.0 mi Calm Calm - N/A   Clear